Year,Month,Day,Hour,Minute,Value (Times are PST for temperature in C)
2014,12,09,01,31,10.80
2014,12,09,01,32,10.80
2014,12,09,01,33,10.80
2014,12,09,01,34,10.80
2014,12,09,01,35,10.80
2014,12,09,01,36,10.80
2014,12,09,01,37,10.80
2014,12,09,01,38,10.80
2014,12,09,01,39,10.80
2014,12,09,01,40,10.80
2014,12,09,01,41,10.80
2014,12,09,01,42,10.80
2014,12,09,01,43,10.80
2014,12,09,01,44,10.80
2014,12,09,01,45,10.80
2014,12,09,01,46,10.80
2014,12,09,01,47,10.80
2014,12,09,01,48,10.80
2014,12,09,01,49,10.80
2014,12,09,01,50,10.80
2014,12,09,01,51,10.80
2014,12,09,01,52,10.80
2014,12,09,01,53,10.80
2014,12,09,01,54,10.80
2014,12,09,01,55,10.80
2014,12,09,01,56,10.80
2014,12,09,01,57,10.80
2014,12,09,01,58,10.80
2014,12,09,01,59,10.80
2014,12,09,02,00,10.80
2014,12,09,02,01,10.90
2014,12,09,02,02,10.90
2014,12,09,02,03,10.90
2014,12,09,02,04,10.90
2014,12,09,02,05,10.90
2014,12,09,02,06,10.90
2014,12,09,02,07,10.90
2014,12,09,02,08,10.90
2014,12,09,02,09,10.90
2014,12,09,02,10,10.90
2014,12,09,02,11,10.90
2014,12,09,02,12,10.90
2014,12,09,02,13,10.90
2014,12,09,02,14,10.90
2014,12,09,02,15,10.90
2014,12,09,02,16,10.90
2014,12,09,02,17,10.90
2014,12,09,02,18,10.90
2014,12,09,02,19,10.90
2014,12,09,02,20,10.90
2014,12,09,02,21,10.90
2014,12,09,02,22,10.90
2014,12,09,02,23,10.90
2014,12,09,02,24,10.90
2014,12,09,02,25,10.90
2014,12,09,02,26,10.90
2014,12,09,02,27,10.90
2014,12,09,02,28,10.90
2014,12,09,02,29,10.90
2014,12,09,02,30,10.90
2014,12,09,02,31,10.90
2014,12,09,02,32,10.90
2014,12,09,02,33,10.90
2014,12,09,02,34,10.90
2014,12,09,02,35,10.90
2014,12,09,02,36,10.90
2014,12,09,02,37,10.90
2014,12,09,02,38,10.90
2014,12,09,02,39,10.90
2014,12,09,02,40,10.90
2014,12,09,02,41,10.90
2014,12,09,02,42,10.90
2014,12,09,02,43,10.90
2014,12,09,02,44,10.90
2014,12,09,02,45,10.90
2014,12,09,02,46,10.90
2014,12,09,02,47,10.90
2014,12,09,02,48,10.90
2014,12,09,02,49,10.90
2014,12,09,02,50,10.90
2014,12,09,02,51,10.90
2014,12,09,02,52,10.90
2014,12,09,02,53,10.90
2014,12,09,02,54,10.90
2014,12,09,02,55,10.90
2014,12,09,02,56,10.90
2014,12,09,02,57,10.90
2014,12,09,02,58,10.90
2014,12,09,02,59,10.90
2014,12,09,03,00,10.90
2014,12,09,03,01,10.90
2014,12,09,03,02,10.90
2014,12,09,03,03,10.90
2014,12,09,03,04,10.90
2014,12,09,03,05,10.90
2014,12,09,03,06,10.90
2014,12,09,03,07,10.90
2014,12,09,03,08,10.90
2014,12,09,03,09,10.90
2014,12,09,03,10,10.90
2014,12,09,03,11,10.90
2014,12,09,03,12,10.90
2014,12,09,03,13,10.90
2014,12,09,03,14,10.90
2014,12,09,03,15,10.90
2014,12,09,03,16,10.90
2014,12,09,03,17,10.90
2014,12,09,03,18,10.90
2014,12,09,03,19,10.90
2014,12,09,03,20,10.90
2014,12,09,03,21,10.90
2014,12,09,03,22,10.90
2014,12,09,03,23,10.90
2014,12,09,03,24,10.90
2014,12,09,03,25,10.90
2014,12,09,03,26,10.90
2014,12,09,03,27,10.90
2014,12,09,03,28,10.90
2014,12,09,03,29,10.90
2014,12,09,03,30,10.90
2014,12,09,03,31,11.00
2014,12,09,03,32,11.00
2014,12,09,03,33,11.00
2014,12,09,03,34,11.00
2014,12,09,03,35,11.00
2014,12,09,03,36,11.00
2014,12,09,03,37,11.00
2014,12,09,03,38,11.00
2014,12,09,03,39,11.00
2014,12,09,03,40,11.00
2014,12,09,03,41,11.00
2014,12,09,03,42,11.00
2014,12,09,03,43,11.00
2014,12,09,03,44,11.00
2014,12,09,03,45,11.00
2014,12,09,03,46,11.00
2014,12,09,03,47,11.00
2014,12,09,03,48,11.00
2014,12,09,03,49,11.00
2014,12,09,03,50,11.00
2014,12,09,03,51,11.00
2014,12,09,03,52,11.00
2014,12,09,03,53,11.00
2014,12,09,03,54,11.00
2014,12,09,03,55,11.00
2014,12,09,03,56,11.00
2014,12,09,03,57,11.00
2014,12,09,03,58,11.00
2014,12,09,03,59,11.00
2014,12,09,04,00,11.00
2014,12,09,04,01,11.10
2014,12,09,04,02,11.10
2014,12,09,04,03,11.10
2014,12,09,04,04,11.10
2014,12,09,04,05,11.10
2014,12,09,04,06,11.10
2014,12,09,04,07,11.10
2014,12,09,04,08,11.10
2014,12,09,04,09,11.10
2014,12,09,04,10,11.10
2014,12,09,04,11,11.10
2014,12,09,04,12,11.10
2014,12,09,04,13,11.10
2014,12,09,04,14,11.10
2014,12,09,04,15,11.10
2014,12,09,04,16,11.10
2014,12,09,04,17,11.10
2014,12,09,04,18,11.10
2014,12,09,04,19,11.10
2014,12,09,04,20,11.10
2014,12,09,04,21,11.10
2014,12,09,04,22,11.10
2014,12,09,04,23,11.10
2014,12,09,04,24,11.10
2014,12,09,04,25,11.10
2014,12,09,04,26,11.10
2014,12,09,04,27,11.10
2014,12,09,04,28,11.10
2014,12,09,04,29,11.10
2014,12,09,04,30,11.10
2014,12,09,04,31,11.10
2014,12,09,04,32,11.10
2014,12,09,04,33,11.10
2014,12,09,04,34,11.10
2014,12,09,04,35,11.10
2014,12,09,04,36,11.10
2014,12,09,04,37,11.10
2014,12,09,04,38,11.10
2014,12,09,04,39,11.10
2014,12,09,04,40,11.10
2014,12,09,04,41,11.10
2014,12,09,04,42,11.10
2014,12,09,04,43,11.10
2014,12,09,04,44,11.10
2014,12,09,04,45,11.10
2014,12,09,04,46,11.10
2014,12,09,04,47,11.10
2014,12,09,04,48,11.10
2014,12,09,04,49,11.10
2014,12,09,04,50,11.10
2014,12,09,04,51,11.10
2014,12,09,04,52,11.10
2014,12,09,04,53,11.10
2014,12,09,04,54,11.10
2014,12,09,04,55,11.10
2014,12,09,04,56,11.10
2014,12,09,04,57,11.10
2014,12,09,04,58,11.10
2014,12,09,04,59,11.10
2014,12,09,05,00,11.10
2014,12,09,05,01,10.60
2014,12,09,05,02,10.60
2014,12,09,05,03,10.60
2014,12,09,05,04,10.60
2014,12,09,05,05,10.60
2014,12,09,05,06,10.60
2014,12,09,05,07,10.60
2014,12,09,05,08,10.60
2014,12,09,05,09,10.60
2014,12,09,05,10,10.60
2014,12,09,05,11,10.60
2014,12,09,05,12,10.60
2014,12,09,05,13,10.60
2014,12,09,05,14,10.60
2014,12,09,05,15,10.60
2014,12,09,05,16,10.60
2014,12,09,05,17,10.60
2014,12,09,05,18,10.60
2014,12,09,05,19,10.60
2014,12,09,05,20,10.60
2014,12,09,05,21,10.60
2014,12,09,05,22,10.60
2014,12,09,05,23,10.60
2014,12,09,05,24,10.60
2014,12,09,05,25,10.60
2014,12,09,05,26,10.60
2014,12,09,05,27,10.60
2014,12,09,05,28,10.60
2014,12,09,05,29,10.60
2014,12,09,05,30,10.60
2014,12,09,05,31,10.40
2014,12,09,05,32,10.40
2014,12,09,05,33,10.40
2014,12,09,05,34,10.40
2014,12,09,05,35,10.40
2014,12,09,05,36,10.40
2014,12,09,05,37,10.40
2014,12,09,05,38,10.40
2014,12,09,05,39,10.40
2014,12,09,05,40,10.40
2014,12,09,05,41,10.40
2014,12,09,05,42,10.40
2014,12,09,05,43,10.40
2014,12,09,05,44,10.40
2014,12,09,05,45,10.40
2014,12,09,05,46,10.40
2014,12,09,05,47,10.40
2014,12,09,05,48,10.40
2014,12,09,05,49,10.40
2014,12,09,05,50,10.40
2014,12,09,05,51,10.40
2014,12,09,05,52,10.40
2014,12,09,05,53,10.40
2014,12,09,05,54,10.40
2014,12,09,05,55,10.40
2014,12,09,05,56,10.40
2014,12,09,05,57,10.40
2014,12,09,05,58,10.40
2014,12,09,05,59,10.40
2014,12,09,06,00,10.40
2014,12,09,06,01,10.60
2014,12,09,06,02,10.60
2014,12,09,06,03,10.60
2014,12,09,06,04,10.60
2014,12,09,06,05,10.60
2014,12,09,06,06,10.60
2014,12,09,06,07,10.60
2014,12,09,06,08,10.60
2014,12,09,06,09,10.60
2014,12,09,06,10,10.60
2014,12,09,06,11,10.60
2014,12,09,06,12,10.60
2014,12,09,06,13,10.60
2014,12,09,06,14,10.60
2014,12,09,06,15,10.60
2014,12,09,06,16,10.60
2014,12,09,06,17,10.60
2014,12,09,06,18,10.60
2014,12,09,06,19,10.60
2014,12,09,06,20,10.60
2014,12,09,06,21,10.60
2014,12,09,06,22,10.60
2014,12,09,06,23,10.60
2014,12,09,06,24,10.60
2014,12,09,06,25,10.60
2014,12,09,06,26,10.60
2014,12,09,06,27,10.60
2014,12,09,06,28,10.60
2014,12,09,06,29,10.60
2014,12,09,06,30,10.60
2014,12,09,06,31,10.60
2014,12,09,06,32,10.60
2014,12,09,06,33,10.60
2014,12,09,06,34,10.60
2014,12,09,06,35,10.60
2014,12,09,06,36,10.60
2014,12,09,06,37,10.60
2014,12,09,06,38,10.60
2014,12,09,06,39,10.60
2014,12,09,06,40,10.60
2014,12,09,06,41,10.60
2014,12,09,06,42,10.60
2014,12,09,06,43,10.60
2014,12,09,06,44,10.60
2014,12,09,06,45,10.60
2014,12,09,06,46,10.60
2014,12,09,06,47,10.60
2014,12,09,06,48,10.60
2014,12,09,06,49,10.60
2014,12,09,06,50,10.60
2014,12,09,06,51,10.60
2014,12,09,06,52,10.60
2014,12,09,06,53,10.60
2014,12,09,06,54,10.60
2014,12,09,06,55,10.60
2014,12,09,06,56,10.60
2014,12,09,06,57,10.60
2014,12,09,06,58,10.60
2014,12,09,06,59,10.60
2014,12,09,07,00,10.60
2014,12,09,07,01,10.50
2014,12,09,07,02,10.50
2014,12,09,07,03,10.50
2014,12,09,07,04,10.50
2014,12,09,07,05,10.50
2014,12,09,07,06,10.50
2014,12,09,07,07,10.50
2014,12,09,07,08,10.50
2014,12,09,07,09,10.50
2014,12,09,07,10,10.50
2014,12,09,07,11,10.50
2014,12,09,07,12,10.50
2014,12,09,07,13,10.50
2014,12,09,07,14,10.50
2014,12,09,07,15,10.50
2014,12,09,07,16,10.50
2014,12,09,07,17,10.50
2014,12,09,07,18,10.50
2014,12,09,07,19,10.50
2014,12,09,07,20,10.50
2014,12,09,07,21,10.50
2014,12,09,07,22,10.50
2014,12,09,07,23,10.50
2014,12,09,07,24,10.50
2014,12,09,07,25,10.50
2014,12,09,07,26,10.50
2014,12,09,07,27,10.50
2014,12,09,07,28,10.50
2014,12,09,07,29,10.50
2014,12,09,07,30,10.50
2014,12,09,07,31,10.40
2014,12,09,07,32,10.40
2014,12,09,07,33,10.40
2014,12,09,07,34,10.40
2014,12,09,07,35,10.40
2014,12,09,07,36,10.40
2014,12,09,07,37,10.40
2014,12,09,07,38,10.40
2014,12,09,07,39,10.40
2014,12,09,07,40,10.40
2014,12,09,07,41,10.40
2014,12,09,07,42,10.40
2014,12,09,07,43,10.40
2014,12,09,07,44,10.40
2014,12,09,07,45,10.40
2014,12,09,07,46,10.40
2014,12,09,07,47,10.40
2014,12,09,07,48,10.40
2014,12,09,07,49,10.40
2014,12,09,07,50,10.40
2014,12,09,07,51,10.40
2014,12,09,07,52,10.40
2014,12,09,07,53,10.40
2014,12,09,07,54,10.40
2014,12,09,07,55,10.40
2014,12,09,07,56,10.40
2014,12,09,07,57,10.40
2014,12,09,07,58,10.40
2014,12,09,07,59,10.40
2014,12,09,08,00,10.40
2014,12,09,08,01,10.60
2014,12,09,08,02,10.60
2014,12,09,08,03,10.60
2014,12,09,08,04,10.60
2014,12,09,08,05,10.60
2014,12,09,08,06,10.60
2014,12,09,08,07,10.60
2014,12,09,08,08,10.60
2014,12,09,08,09,10.60
2014,12,09,08,10,10.60
2014,12,09,08,11,10.60
2014,12,09,08,12,10.60
2014,12,09,08,13,10.60
2014,12,09,08,14,10.60
2014,12,09,08,15,10.60
2014,12,09,08,16,10.60
2014,12,09,08,17,10.60
2014,12,09,08,18,10.60
2014,12,09,08,19,10.60
2014,12,09,08,20,10.60
2014,12,09,08,21,10.60
2014,12,09,08,22,10.60
2014,12,09,08,23,10.60
2014,12,09,08,24,10.60
2014,12,09,08,25,10.60
2014,12,09,08,26,10.60
2014,12,09,08,27,10.60
2014,12,09,08,28,10.60
2014,12,09,08,29,10.60
2014,12,09,08,30,10.60
2014,12,09,08,31,11.20
2014,12,09,08,32,11.20
2014,12,09,08,33,11.20
2014,12,09,08,34,11.20
2014,12,09,08,35,11.20
2014,12,09,08,36,11.20
2014,12,09,08,37,11.20
2014,12,09,08,38,11.20
2014,12,09,08,39,11.20
2014,12,09,08,40,11.20
2014,12,09,08,41,11.20
2014,12,09,08,42,11.20
2014,12,09,08,43,11.20
2014,12,09,08,44,11.20
2014,12,09,08,45,11.20
2014,12,09,08,46,11.20
2014,12,09,08,47,11.20
2014,12,09,08,48,11.20
2014,12,09,08,49,11.20
2014,12,09,08,50,11.20
2014,12,09,08,51,11.20
2014,12,09,08,52,11.20
2014,12,09,08,53,11.20
2014,12,09,08,54,11.20
2014,12,09,08,55,11.20
2014,12,09,08,56,11.20
2014,12,09,08,57,11.20
2014,12,09,08,58,11.20
2014,12,09,08,59,11.20
2014,12,09,09,00,11.20
2014,12,09,09,01,10.70
2014,12,09,09,02,10.70
2014,12,09,09,03,10.70
2014,12,09,09,04,10.70
2014,12,09,09,05,10.70
2014,12,09,09,06,10.70
2014,12,09,09,07,10.70
2014,12,09,09,08,10.70
2014,12,09,09,09,10.70
2014,12,09,09,10,10.70
2014,12,09,09,11,10.70
2014,12,09,09,12,10.70
2014,12,09,09,13,10.70
2014,12,09,09,14,10.70
2014,12,09,09,15,10.70
2014,12,09,09,16,10.70
2014,12,09,09,17,10.70
2014,12,09,09,18,10.70
2014,12,09,09,19,10.70
2014,12,09,09,20,10.70
2014,12,09,09,21,10.70
2014,12,09,09,22,10.70
2014,12,09,09,23,10.70
2014,12,09,09,24,10.70
2014,12,09,09,25,10.70
2014,12,09,09,26,10.70
2014,12,09,09,27,10.70
2014,12,09,09,28,10.70
2014,12,09,09,29,10.70
2014,12,09,09,30,10.70
2014,12,09,09,31,10.60
2014,12,09,09,32,10.60
2014,12,09,09,33,10.60
2014,12,09,09,34,10.60
2014,12,09,09,35,10.60
2014,12,09,09,36,10.60
2014,12,09,09,37,10.60
2014,12,09,09,38,10.60
2014,12,09,09,39,10.60
2014,12,09,09,40,10.60
2014,12,09,09,41,10.60
2014,12,09,09,42,10.60
2014,12,09,09,43,10.60
2014,12,09,09,44,10.60
2014,12,09,09,45,10.60
2014,12,09,09,46,10.60
2014,12,09,09,47,10.60
2014,12,09,09,48,10.60
2014,12,09,09,49,10.60
2014,12,09,09,50,10.60
2014,12,09,09,51,10.60
2014,12,09,09,52,10.60
2014,12,09,09,53,10.60
2014,12,09,09,54,10.60
2014,12,09,09,55,10.60
2014,12,09,09,56,10.60
2014,12,09,09,57,10.60
2014,12,09,09,58,10.60
2014,12,09,09,59,10.60
2014,12,09,10,00,10.60
2014,12,09,10,01,10.60
2014,12,09,10,02,10.60
2014,12,09,10,03,10.60
2014,12,09,10,04,10.60
2014,12,09,10,05,10.60
2014,12,09,10,06,10.60
2014,12,09,10,07,10.60
2014,12,09,10,08,10.60
2014,12,09,10,09,10.60
2014,12,09,10,10,10.60
2014,12,09,10,11,10.60
2014,12,09,10,12,10.60
2014,12,09,10,13,10.60
2014,12,09,10,14,10.60
2014,12,09,10,15,10.60
2014,12,09,10,16,10.60
2014,12,09,10,17,10.60
2014,12,09,10,18,10.60
2014,12,09,10,19,10.60
2014,12,09,10,20,10.60
2014,12,09,10,21,10.60
2014,12,09,10,22,10.60
2014,12,09,10,23,10.60
2014,12,09,10,24,10.60
2014,12,09,10,25,10.60
2014,12,09,10,26,10.60
2014,12,09,10,27,10.60
2014,12,09,10,28,10.60
2014,12,09,10,29,10.60
2014,12,09,10,30,10.60
2014,12,09,10,31,12.10
2014,12,09,10,32,12.10
2014,12,09,10,33,12.10
2014,12,09,10,34,12.10
2014,12,09,10,35,12.10
2014,12,09,10,36,12.10
2014,12,09,10,37,12.10
2014,12,09,10,38,12.10
2014,12,09,10,39,12.10
2014,12,09,10,40,12.10
2014,12,09,10,41,12.10
2014,12,09,10,42,12.10
2014,12,09,10,43,12.10
2014,12,09,10,44,12.10
2014,12,09,10,45,12.10
2014,12,09,10,46,12.10
2014,12,09,10,47,12.10
2014,12,09,10,48,12.10
2014,12,09,10,49,12.10
2014,12,09,10,50,12.10
2014,12,09,10,51,12.10
2014,12,09,10,52,12.10
2014,12,09,10,53,12.10
2014,12,09,10,54,12.10
2014,12,09,10,55,12.10
2014,12,09,10,56,12.10
2014,12,09,10,57,12.10
2014,12,09,10,58,12.10
2014,12,09,10,59,12.10
2014,12,09,11,00,12.10
2014,12,09,11,01,11.50
2014,12,09,11,02,11.50
2014,12,09,11,03,11.50
2014,12,09,11,04,11.50
2014,12,09,11,05,11.50
2014,12,09,11,06,11.50
2014,12,09,11,07,11.50
2014,12,09,11,08,11.50
2014,12,09,11,09,11.50
2014,12,09,11,10,11.50
2014,12,09,11,11,11.50
2014,12,09,11,12,11.50
2014,12,09,11,13,11.50
2014,12,09,11,14,11.50
2014,12,09,11,15,11.50
2014,12,09,11,16,11.50
2014,12,09,11,17,11.50
2014,12,09,11,18,11.50
2014,12,09,11,19,11.50
2014,12,09,11,20,11.50
2014,12,09,11,21,11.50
2014,12,09,11,22,11.50
2014,12,09,11,23,11.50
2014,12,09,11,24,11.50
2014,12,09,11,25,11.50
2014,12,09,11,26,11.50
2014,12,09,11,27,11.50
2014,12,09,11,28,11.50
2014,12,09,11,29,11.50
2014,12,09,11,30,11.50
2014,12,09,11,31,12.90
2014,12,09,11,32,12.90
2014,12,09,11,33,12.90
2014,12,09,11,34,12.90
2014,12,09,11,35,12.90
2014,12,09,11,36,12.90
2014,12,09,11,37,12.90
2014,12,09,11,38,12.90
2014,12,09,11,39,12.90
2014,12,09,11,40,12.90
2014,12,09,11,41,12.90
2014,12,09,11,42,12.90
2014,12,09,11,43,12.90
2014,12,09,11,44,12.90
2014,12,09,11,45,12.90
2014,12,09,11,46,12.90
2014,12,09,11,47,12.90
2014,12,09,11,48,12.90
2014,12,09,11,49,12.90
2014,12,09,11,50,12.90
2014,12,09,11,51,12.90
2014,12,09,11,52,12.90
2014,12,09,11,53,12.90
2014,12,09,11,54,12.90
2014,12,09,11,55,12.90
2014,12,09,11,56,12.90
2014,12,09,11,57,12.90
2014,12,09,11,58,12.90
2014,12,09,11,59,12.90
2014,12,09,12,00,12.90
2014,12,09,12,01,12.60
2014,12,09,12,02,12.60
2014,12,09,12,03,12.60
2014,12,09,12,04,12.60
2014,12,09,12,05,12.60
2014,12,09,12,06,12.60
2014,12,09,12,07,12.60
2014,12,09,12,08,12.60
2014,12,09,12,09,12.60
2014,12,09,12,10,12.60
2014,12,09,12,11,12.60
2014,12,09,12,12,12.60
2014,12,09,12,13,12.60
2014,12,09,12,14,12.60
2014,12,09,12,15,12.60
2014,12,09,12,16,12.60
2014,12,09,12,17,12.60
2014,12,09,12,18,12.60
2014,12,09,12,19,12.60
2014,12,09,12,20,12.60
2014,12,09,12,21,12.60
2014,12,09,12,22,12.60
2014,12,09,12,23,12.60
2014,12,09,12,24,12.60
2014,12,09,12,25,12.60
2014,12,09,12,26,12.60
2014,12,09,12,27,12.60
2014,12,09,12,28,12.60
2014,12,09,12,29,12.60
2014,12,09,12,30,12.60
2014,12,09,12,31,12.20
2014,12,09,12,32,12.20
2014,12,09,12,33,12.20
2014,12,09,12,34,12.20
2014,12,09,12,35,12.20
2014,12,09,12,36,12.20
2014,12,09,12,37,12.20
2014,12,09,12,38,12.20
2014,12,09,12,39,12.20
2014,12,09,12,40,12.20
2014,12,09,12,41,12.20
2014,12,09,12,42,12.20
2014,12,09,12,43,12.20
2014,12,09,12,44,12.20
2014,12,09,12,45,12.20
2014,12,09,12,46,12.20
2014,12,09,12,47,12.20
2014,12,09,12,48,12.20
2014,12,09,12,49,12.20
2014,12,09,12,50,12.20
2014,12,09,12,51,12.20
2014,12,09,12,52,12.20
2014,12,09,12,53,12.20
2014,12,09,12,54,12.20
2014,12,09,12,55,12.20
2014,12,09,12,56,12.20
2014,12,09,12,57,12.20
2014,12,09,12,58,12.20
2014,12,09,12,59,12.20
2014,12,09,13,00,12.20
2014,12,09,13,01,12.10
2014,12,09,13,02,12.10
2014,12,09,13,03,12.10
2014,12,09,13,04,12.10
2014,12,09,13,05,12.10
2014,12,09,13,06,12.10
2014,12,09,13,07,12.10
2014,12,09,13,08,12.10
2014,12,09,13,09,12.10
2014,12,09,13,10,12.10
2014,12,09,13,11,12.10
2014,12,09,13,12,12.10
2014,12,09,13,13,12.10
2014,12,09,13,14,12.10
2014,12,09,13,15,12.10
2014,12,09,13,16,12.10
2014,12,09,13,17,12.10
2014,12,09,13,18,12.10
2014,12,09,13,19,12.10
2014,12,09,13,20,12.10
2014,12,09,13,21,12.10
2014,12,09,13,22,12.10
2014,12,09,13,23,12.10
2014,12,09,13,24,12.10
2014,12,09,13,25,12.10
2014,12,09,13,26,12.10
2014,12,09,13,27,12.10
2014,12,09,13,28,12.10
2014,12,09,13,29,12.10
2014,12,09,13,30,12.10
2014,12,09,13,31,11.80
2014,12,09,13,32,11.80
2014,12,09,13,33,11.80
2014,12,09,13,34,11.80
2014,12,09,13,35,11.80
2014,12,09,13,36,11.80
2014,12,09,13,37,11.80
2014,12,09,13,38,11.80
2014,12,09,13,39,11.80
2014,12,09,13,40,11.80
2014,12,09,13,41,11.80
2014,12,09,13,42,11.80
2014,12,09,13,43,11.80
2014,12,09,13,44,11.80
2014,12,09,13,45,11.80
2014,12,09,13,46,11.80
2014,12,09,13,47,11.80
2014,12,09,13,48,11.80
2014,12,09,13,49,11.80
2014,12,09,13,50,11.80
2014,12,09,13,51,11.80
2014,12,09,13,52,11.80
2014,12,09,13,53,11.80
2014,12,09,13,54,11.80
2014,12,09,13,55,11.80
2014,12,09,13,56,11.80
2014,12,09,13,57,11.80
2014,12,09,13,58,11.80
2014,12,09,13,59,11.80
2014,12,09,14,00,11.80
2014,12,09,14,01,11.60
2014,12,09,14,02,11.60
2014,12,09,14,03,11.60
2014,12,09,14,04,11.60
2014,12,09,14,05,11.60
2014,12,09,14,06,11.60
2014,12,09,14,07,11.60
2014,12,09,14,08,11.60
2014,12,09,14,09,11.60
2014,12,09,14,10,11.60
2014,12,09,14,11,11.60
2014,12,09,14,12,11.60
2014,12,09,14,13,11.60
2014,12,09,14,14,11.60
2014,12,09,14,15,11.60
2014,12,09,14,16,11.60
2014,12,09,14,17,11.60
2014,12,09,14,18,11.60
2014,12,09,14,19,11.60
2014,12,09,14,20,11.60
2014,12,09,14,21,11.60
2014,12,09,14,22,11.60
2014,12,09,14,23,11.60
2014,12,09,14,24,11.60
2014,12,09,14,25,11.60
2014,12,09,14,26,11.60
2014,12,09,14,27,11.60
2014,12,09,14,28,11.60
2014,12,09,14,29,11.60
2014,12,09,14,30,11.60
2014,12,09,14,31,11.40
2014,12,09,14,32,11.40
2014,12,09,14,33,11.40
2014,12,09,14,34,11.40
2014,12,09,14,35,11.40
2014,12,09,14,36,11.40
2014,12,09,14,37,11.40
2014,12,09,14,38,11.40
2014,12,09,14,39,11.40
2014,12,09,14,40,11.40
2014,12,09,14,41,11.40
2014,12,09,14,42,11.40
2014,12,09,14,43,11.40
2014,12,09,14,44,11.40
2014,12,09,14,45,11.40
2014,12,09,14,46,11.40
2014,12,09,14,47,11.40
2014,12,09,14,48,11.40
2014,12,09,14,49,11.40
2014,12,09,14,50,11.40
2014,12,09,14,51,11.40
2014,12,09,14,52,11.40
2014,12,09,14,53,11.40
2014,12,09,14,54,11.40
2014,12,09,14,55,11.40
2014,12,09,14,56,11.40
2014,12,09,14,57,11.40
2014,12,09,14,58,11.40
2014,12,09,14,59,11.40
2014,12,09,15,00,11.40
2014,12,09,15,01,12.30
2014,12,09,15,02,12.30
2014,12,09,15,03,12.30
2014,12,09,15,04,12.30
2014,12,09,15,05,12.30
2014,12,09,15,06,12.30
2014,12,09,15,07,12.30
2014,12,09,15,08,12.30
2014,12,09,15,09,12.30
2014,12,09,15,10,12.30
2014,12,09,15,11,12.30
2014,12,09,15,12,12.30
2014,12,09,15,13,12.30
2014,12,09,15,14,12.30
2014,12,09,15,15,12.30
2014,12,09,15,16,12.30
2014,12,09,15,17,12.30
2014,12,09,15,18,12.30
2014,12,09,15,19,12.30
2014,12,09,15,20,12.30
2014,12,09,15,21,12.30
2014,12,09,15,22,12.30
2014,12,09,15,23,12.30
2014,12,09,15,24,12.30
2014,12,09,15,25,12.30
2014,12,09,15,26,12.30
2014,12,09,15,27,12.30
2014,12,09,15,28,12.30
2014,12,09,15,29,12.30
2014,12,09,15,30,12.30
2014,12,09,15,31,12.80
2014,12,09,15,32,12.80
2014,12,09,15,33,12.80
2014,12,09,15,34,12.80
2014,12,09,15,35,12.80
2014,12,09,15,36,12.80
2014,12,09,15,37,12.80
2014,12,09,15,38,12.80
2014,12,09,15,39,12.80
2014,12,09,15,40,12.80
2014,12,09,15,41,12.80
2014,12,09,15,42,12.80
2014,12,09,15,43,12.80
2014,12,09,15,44,12.80
2014,12,09,15,45,12.80
2014,12,09,15,46,12.80
2014,12,09,15,47,12.80
2014,12,09,15,48,12.80
2014,12,09,15,49,12.80
2014,12,09,15,50,12.80
2014,12,09,15,51,12.80
2014,12,09,15,52,12.80
2014,12,09,15,53,12.80
2014,12,09,15,54,12.80
2014,12,09,15,55,12.80
2014,12,09,15,56,12.80
2014,12,09,15,57,12.80
2014,12,09,15,58,12.80
2014,12,09,15,59,12.80
2014,12,09,16,00,12.80
2014,12,09,16,01,13.20
2014,12,09,16,02,13.20
2014,12,09,16,03,13.20
2014,12,09,16,04,13.20
2014,12,09,16,05,13.20
2014,12,09,16,06,13.20
2014,12,09,16,07,13.20
2014,12,09,16,08,13.20
2014,12,09,16,09,13.20
2014,12,09,16,10,13.20
2014,12,09,16,11,13.20
2014,12,09,16,12,13.20
2014,12,09,16,13,13.20
2014,12,09,16,14,13.20
2014,12,09,16,15,13.20
2014,12,09,16,16,13.20
2014,12,09,16,17,13.20
2014,12,09,16,18,13.20
2014,12,09,16,19,13.20
2014,12,09,16,20,13.20
2014,12,09,16,21,13.20
2014,12,09,16,22,13.20
2014,12,09,16,23,13.20
2014,12,09,16,24,13.20
2014,12,09,16,25,13.20
2014,12,09,16,26,13.20
2014,12,09,16,27,13.20
2014,12,09,16,28,13.20
2014,12,09,16,29,13.20
2014,12,09,16,30,13.20
2014,12,09,16,31,13.50
2014,12,09,16,32,13.50
2014,12,09,16,33,13.50
2014,12,09,16,34,13.50
2014,12,09,16,35,13.50
2014,12,09,16,36,13.50
2014,12,09,16,37,13.50
2014,12,09,16,38,13.50
2014,12,09,16,39,13.50
2014,12,09,16,40,13.50
2014,12,09,16,41,13.50
2014,12,09,16,42,13.50
2014,12,09,16,43,13.50
2014,12,09,16,44,13.50
2014,12,09,16,45,13.50
2014,12,09,16,46,13.50
2014,12,09,16,47,13.50
2014,12,09,16,48,13.50
2014,12,09,16,49,13.50
2014,12,09,16,50,13.50
2014,12,09,16,51,13.50
2014,12,09,16,52,13.50
2014,12,09,16,53,13.50
2014,12,09,16,54,13.50
2014,12,09,16,55,13.50
2014,12,09,16,56,13.50
2014,12,09,16,57,13.50
2014,12,09,16,58,13.50
2014,12,09,16,59,13.50
2014,12,09,17,00,13.50
2014,12,09,17,01,12.70
2014,12,09,17,02,12.70
2014,12,09,17,03,12.70
2014,12,09,17,04,12.70
2014,12,09,17,05,12.70
2014,12,09,17,06,12.70
2014,12,09,17,07,12.70
2014,12,09,17,08,12.70
2014,12,09,17,09,12.70
2014,12,09,17,10,12.70
2014,12,09,17,11,12.70
2014,12,09,17,12,12.70
2014,12,09,17,13,12.70
2014,12,09,17,14,12.70
2014,12,09,17,15,12.70
2014,12,09,17,16,12.70
2014,12,09,17,17,12.70
2014,12,09,17,18,12.70
2014,12,09,17,19,12.70
2014,12,09,17,20,12.70
2014,12,09,17,21,12.70
2014,12,09,17,22,12.70
2014,12,09,17,23,12.70
2014,12,09,17,24,12.70
2014,12,09,17,25,12.70
2014,12,09,17,26,12.70
2014,12,09,17,27,12.70
2014,12,09,17,28,12.70
2014,12,09,17,29,12.70
2014,12,09,17,30,12.70
2014,12,09,17,31,11.90
2014,12,09,17,32,11.90
2014,12,09,17,33,11.90
2014,12,09,17,34,11.90
2014,12,09,17,35,11.90
2014,12,09,17,36,11.90
2014,12,09,17,37,11.90
2014,12,09,17,38,11.90
2014,12,09,17,39,11.90
2014,12,09,17,40,11.90
2014,12,09,17,41,11.90
2014,12,09,17,42,11.90
2014,12,09,17,43,11.90
2014,12,09,17,44,11.90
2014,12,09,17,45,11.90
2014,12,09,17,46,11.90
2014,12,09,17,47,11.90
2014,12,09,17,48,11.90
2014,12,09,17,49,11.90
2014,12,09,17,50,11.90
2014,12,09,17,51,11.90
2014,12,09,17,52,11.90
2014,12,09,17,53,11.90
2014,12,09,17,54,11.90
2014,12,09,17,55,11.90
2014,12,09,17,56,11.90
2014,12,09,17,57,11.90
2014,12,09,17,58,11.90
2014,12,09,17,59,11.90
2014,12,09,18,00,11.90
2014,12,09,18,01,11.70
2014,12,09,18,02,11.70
2014,12,09,18,03,11.70
2014,12,09,18,04,11.70
2014,12,09,18,05,11.70
2014,12,09,18,06,11.70
2014,12,09,18,07,11.70
2014,12,09,18,08,11.70
2014,12,09,18,09,11.70
2014,12,09,18,10,11.70
2014,12,09,18,11,11.70
2014,12,09,18,12,11.70
2014,12,09,18,13,11.70
2014,12,09,18,14,11.70
2014,12,09,18,15,11.70
2014,12,09,18,16,11.70
2014,12,09,18,17,11.70
2014,12,09,18,18,11.70
2014,12,09,18,19,11.70
2014,12,09,18,20,11.70
2014,12,09,18,21,11.70
2014,12,09,18,22,11.70
2014,12,09,18,23,11.70
2014,12,09,18,24,11.70
2014,12,09,18,25,11.70
2014,12,09,18,26,11.70
2014,12,09,18,27,11.70
2014,12,09,18,28,11.70
2014,12,09,18,29,11.70
2014,12,09,18,30,11.70
2014,12,09,18,31,10.90
2014,12,09,18,32,10.90
2014,12,09,18,33,10.90
2014,12,09,18,34,10.90
2014,12,09,18,35,10.90
2014,12,09,18,36,10.90
2014,12,09,18,37,10.90
2014,12,09,18,38,10.90
2014,12,09,18,39,10.90
2014,12,09,18,40,10.90
2014,12,09,18,41,10.90
2014,12,09,18,42,10.90
2014,12,09,18,43,10.90
2014,12,09,18,44,10.90
2014,12,09,18,45,10.90
2014,12,09,18,46,10.90
2014,12,09,18,47,10.90
2014,12,09,18,48,10.90
2014,12,09,18,49,10.90
2014,12,09,18,50,10.90